Regional Weather Roundup
Issued by NWS

Home | Current Version | Previous Version | Graphics & Text | Print | Product List | Glossary On
Versions: 1 2 3 4 5 6 7 8 9 10 11 12 13 14 15 16 17 18 19 20 21 22 23 24 25 26 27 28 29 30 31 32 33 34 35 36 37 38 39 40 41 42 43 44 45 46 47 48 49 50
000
ASUS43 KLSX 260159
RWRMO

WEATHER SUMMARY FOR MISSOURI
NATIONAL WEATHER SERVICE SPRINGFIELD MO
900 PM CDT FRI JUL 25 2014

NOTE: "FAIR" INDICATES FEW OR NO CLOUDS BELOW 12,000 FEET WITH NO
       SIGNIFICANT WEATHER AND/OR OBSTRUCTIONS TO VISIBILITY.
       CURRENT SKY AND/OR WEATHER CONDITIONS ARE NOT AVAILABLE FOR
       CHILLICOTHE AND FARMINGTON.

MOZ001>031-035>038-043-044-053-054-260300-
...NORTHERN AND WESTERN MISSOURI...

CITY           SKY/WX    TMP DP  RH WIND       PRES   REMARKS
KANSAS CTY INT MOCLDY    87  73  62 S15       29.77S HX  94
KANSAS C DTWN  PTCLDY    90  73  57 S16       29.76S HX  98
LEE`S SUMMIT   PTCLDY    87  73  62 S12       29.80R HX  94
ST JOSEPH      CLEAR     86  73  65 S9        29.74R HX  93
CHILLICOTHE      N/A     86  74  67 S9        29.77S HX  94
KIRKSVILLE     CLEAR     74  68  81 E6        29.83S

$$
MOZ066>068-077>081-088>096-101>105-260300-
...SOUTHWEST MISSOURI...

CITY           SKY/WX    TMP DP  RH WIND       PRES   REMARKS
SPRINGFIELD    CLEAR     81  69  67 S9        29.90S
JOPLIN         CLEAR     83  70  64 S12       29.90R

$$
MOZ032>034-039>042-045>050-055>058-069>072-260300-
...CENTRAL MISSOURI...

CITY           SKY/WX    TMP DP  RH WIND       PRES   REMARKS
COLUMBIA       CLEAR     83  71  67 S9        29.83R
JEFFERSON CITY CLEAR     84  70  62 S8        29.82R
ROLLA          CLEAR     78  67  68 S14G21    29.88S
SEDALIA        CLEAR     86  69  56 SW10      29.82S HX  90
OSAGE BEACH    CLEAR     82  70  65 S12       29.86S

$$
MOZ051-052-059>065-260300-
...EAST CENTRAL MISSOURI...

CITY           SKY/WX    TMP DP  RH WIND       PRES   REMARKS
ST LOUIS INTL  PTCLDY    78  64  61 SE7       29.89R
SPIRIT OF STL  PTCLDY    78  65  63 CALM      29.86R
ST CHARLES     CLEAR     70  65  84 E8        29.88R

$$
MOZ072>076-082>087-097>100-106>115-260300-
...SOUTH CENTRAL AND SOUTHEAST MISSOURI...

CITY           SKY/WX    TMP DP  RH WIND       PRES   REMARKS
CAPE GIRARDEAU MOCLDY    72  64  76 S6        29.93S
FARMINGTON     CLEAR     72  63  73 S8        29.96R
POPLAR BLUFF   PTCLDY    74  62  66 S7        29.93S
WEST PLAINS    PTCLDY    77  68  73 S5        29.97R

$$



USA.gov is the U.S. government's official web portal to all federal, state and local government web resources and services.